Location: LDNL
(36.4545°S, 141.6685°E)
Time: 05:50:26
(UTC+10:00)

Transit 2A - Visible Passes

Search period start: 10 August 2022 00:00
Search period end: 20 August 2022 00:00
Orbit: 601 x 956 km, 66.7° (Epoch: 09 August)

Date Brightness Start Highest point End Pass type
(mag) Time Alt. Az. Time Alt. Az. Time Alt. Az.
17 Aug 8.7 06:28:03 10° S 06:32:29 19° SE 06:36:45 10° E visible
18 Aug 8.9 05:54:28 10° S 05:57:43 14° SE 06:00:54 10° ESE visible
19 Aug 9.2 05:21:56 10° SSE 05:22:53 10° SE 05:23:49 10° SE visible
